Flag for U.S.A. Weather past 2 weeks in Elizabeth, New Jersey, U.S.A.

63 °F

Passing clouds.

Feels Like: 63 °F
Forecast: 60 / 77 °F
Wind: No wind

Location: Newark International Airport

Current Time: Oct 8, 2015 at 9:46:33 PM

Latest Report: Oct 8, 2015 at 8:55 PM

Visibility: 10 mi

Pressure: 30.12 "Hg

Humidity: 77%

Dew point: 55 °F

Location of ElizabethLocation

Historic Weather in Elizabeth — Graph


Elizabeth temperature yesterday

Maximum temperature yesterday: 75 °F (at 3:51 PM)
Minimum temperature yesterday: 56 °F (at 5:51 AM)
Average temperature yesterday: 64 °F

Past Weeks' High & Low Weather Summary

High81 °F (Sep 24, 4:51 PM)97% (Sep 30, 2:51 AM)30.47 "Hg (Sep 30, 2:51 AM)
Low48 °F (Oct 2, 7:51 PM)32% (Sep 24, 1:51 PM)29.65 "Hg (Sep 30, 5:51 AM)
Average64 °F70%30.17 "Hg
* Reported Sep 23 8:51 PM — Oct 8 8:55 PM, Elizabeth, Weather by CustomWeather, © 2015

Note: Actual official high and low records may vary slightly from our data, if they occured in-between our weather recording intervals... More about our weather records


Elizabeth weather history for previous 24 hours

Time TempWeatherWind HumidityBarometerVisibility
8:55 PM
Thu, Oct 8
63 °FPassing clouds.No wind77%30.12 "Hg10 mi
7:51 PM63 °FPassing clouds.5 mph78%30.11 "Hg10 mi
6:51 PM63 °FScattered clouds.8 mph75%30.10 "Hg10 mi
5:51 PM65 °FScattered clouds.8 mph70%30.09 "Hg10 mi
4:51 PM66 °FScattered clouds.10 mph63%30.10 "Hg10 mi
3:51 PM68 °FBroken clouds.6 mph57%30.09 "Hg10 mi
2:51 PM68 °FBroken clouds.9 mph55%30.11 "Hg10 mi
1:51 PM68 °FBroken clouds.9 mph53%30.12 "Hg10 mi
12:51 PM69 °FBroken clouds.No wind49%30.13 "Hg10 mi
11:51 AM69 °FBroken clouds.No wind51%30.14 "Hg10 mi
10:51 AM66 °FBroken clouds.No wind59%30.14 "Hg10 mi
9:51 AM65 °FBroken clouds.7 mph63%30.14 "Hg10 mi
8:51 AM63 °FBroken clouds.8 mph70%30.14 "Hg10 mi
7:51 AM59 °FPassing clouds.5 mph81%30.13 "Hg10 mi
6:51 AM57 °FPassing clouds.6 mph81%30.10 "Hg10 mi
5:51 AM58 °FPassing clouds.7 mph78%30.09 "Hg10 mi
4:51 AM60 °FOvercast.No wind78%30.07 "Hg10 mi
3:51 AM59 °FPassing clouds.No wind78%30.05 "Hg10 mi
2:51 AM58 °FClear.No wind75%30.06 "Hg10 mi
1:51 AM59 °FClear.No wind75%30.05 "Hg10 mi
12:51 AM60 °FClear.6 mph72%30.05 "Hg10 mi
11:51 PM
Wed, Oct 7
62 °FClear.5 mph67%30.05 "Hg10 mi
10:51 PM63 °FClear.6 mph65%30.04 "Hg10 mi
9:51 PM66 °FClear.5 mph59%30.03 "Hg10 mi
Weather by CustomWeather, © 2015

See weather overviewHow to use our weather pages